Weather Roundup
Issued by NWS

Home | Current Version | Previous Version | Text Only | Print | Product List | Glossary On
Versions: 1 2 3 4 5 6 7 8 9 10 11 12 13 14 15 16 17 18 19 20 21 22 23 24 25 26 27 28 29 30 31 32 33 34 35 36 37 38 39 40 41 42 43 44 45 46 47 48 49 50
000
NZUS93 KARX 192210
HRRWXR

CURRENT HOURLY OBSERVATIONS ACROSS
MUCH OF THE UPPER MISSISSIPPI VALLEY
NATIONAL WEATHER SERVICE LA CROSSE WI
400 PM CST THU JAN 19 2017


...SOUTHEAST MINNESOTA...


CITY           SKY/WX    TMP DP  RH WIND       PRES   REMARKS
ROCHESTER      CLOUDY    34  32  92 SE12      29.76S WCI  25
ROCHESTER/MAYO CLOUDY    36  35  94 SE10      29.77R WCI  29
WINONA         CLOUDY    36  32  87 SE8       29.81S WCI  29
AUSTIN         CLOUDY    36  32  87 SE7       29.75S WCI  30
ALBERT LEA     CLOUDY    36  34  93 SE6       29.73S WCI  31
DODGE CENTER   PTCLDY    34  32  93 SE8       29.74S WCI  27
PRESTON        CLOUDY    35  32  88 SE7       29.77F WCI  29
OWATONNA       CLOUDY    37  30  75 SE9       29.73S WCI  31
FARIBAULT        N/A     37  34  87 SE3       29.75S
$$

...ELSEWHERE IN MINNESOTA...


CITY           SKY/WX    TMP DP  RH WIND       PRES   REMARKS
MINNEAPOLIS    CLOUDY    37  31  78 S7        29.75F WCI  32
INTNL FALLS    CLEAR     39  33  79 S3        29.63R
DULUTH         CLEAR     43  35  73 S7        29.71R
RED WING       CLOUDY    37  32  81 SE7       29.78R WCI  32
REDWOOD FALLS  CLOUDY    37  34  89 SE12      29.68S FOG     WCI  29
MANKATO        MOCLDY    37  34  89 SE8       29.73  WCI  31
WORTHINGTON    FOG       36  36 100 S8        29.67  VSB 1/4 WCI  30
FAIRMONT       CLOUDY    37  35  92 SE9       29.71S WCI  30
$$

...SOUTHWEST WISCONSIN...


CITY           SKY/WX    TMP DP  RH WIND       PRES   REMARKS
LA CROSSE      CLOUDY    39  33  79 CALM      29.81F
PRAIRIE DU CHI RAIN      36  34  92 CALM      29.82S
BOSCOBEL       CLOUDY    39  34  82 CALM      29.83S
LONE ROCK      CLOUDY    37  34  89 E8        29.85S FOG     WCI  31
PLATTEVILLE    CLOUDY    36  36 100 E13       29.82S WCI  27
FORT MC COY    CLOUDY    38  33  83 E5        29.83F WCI  34
CAMP DOUGLAS   MOCLDY    37  32  81 SE5       29.83F WCI  34
MAUSTON-NEW LI CLOUDY    37  33  87 CALM      29.83S
VIROQUA        CLOUDY    35  34  97 E7        29.80F WCI  29
WIS DELLS      CLOUDY    36  33  90 E5        29.85R WCI  32
$$

...ELSEWHERE IN WISCONSIN...


CITY           SKY/WX    TMP DP  RH WIND       PRES   REMARKS
MILWAUKEE      CLOUDY    37  34  89 CALM      29.89F FOG
MADISON        CLOUDY    36  34  92 SE5       29.86F FOG     WCI  32
GREEN BAY      FOG       34  34 100 SW3       29.88S VSB 1/2
EAU CLAIRE     CLOUDY    39  32  76 S3        29.79R
BLACK RVR FLS  MOCLDY    43  30  59 S5        29.81S
MEDFORD        FOG       32  31  99 SE5       29.81R VSB 1/2 WCI  27
WAUSAU         CLOUDY    36  32  85 SE8       29.82S WCI  30
WIS RAPIDS     CLOUDY    37  33  85 SE5       29.85R WCI  33
MARSHFIELD     CLOUDY    34  31  88 E7        29.81S FOG     WCI  28
RICE LAKE      CLEAR     37  33  85 SE7       29.78S WCI  31
$$

...NORTHEAST IOWA...


CITY           SKY/WX    TMP DP  RH WIND       PRES   REMARKS
WATERLOO       MIX PCPN  36  34  92 E10       29.75F FOG     WCI  28
DUBUQUE        LGT RAIN  37  36  96 SE8       29.81S FOG     WCI  31
DECORAH        LGT RAIN  34  34 100 SE7       29.78F WCI  28
MASON CITY     CLOUDY    35  33  92 E9        29.72F WCI  28
CHARLES CITY   CLOUDY    36  36 100 SE13      29.76F FOG     WCI  27
OELWEIN          N/A     36  36 100 E10       29.77F WCI  28
$$

...ELSEWHERE IN IOWA...


CITY           SKY/WX    TMP DP  RH WIND       PRES   REMARKS
DES MOINES     FOG       39  38  96 E7        29.71R VSB 1/2 WCI  34
IOWA CITY      CLOUDY    39  38  96 E8        29.77F FOG     WCI  33
FORT DODGE     CLOUDY    37  36  93 SE8       29.71S WCI  31
MARSHALLTOWN   LGT RAIN  36  36 100 E7        29.72S FOG     WCI  30
CEDAR RAPIDS   LGT RAIN  36  36 100 E9        29.75F VSB 1   WCI  29
$$

...NORTHERN ILLINOIS...


CITY           SKY/WX    TMP DP  RH WIND       PRES   REMARKS
CHICAGO-OHARE  CLOUDY    41  36  82 E6        29.87F HAZE
CHICAGO-MIDWAY CLOUDY    40  35  83 E7        29.87F HAZE
MOLINE         LGT RAIN  40  37  89 E9        29.79F FOG     WCI  34
ROCKFORD       LGT RAIN  39  36  89 SE7       29.87F FOG     WCI  34
PEORIA         CLOUDY    42  41  96 E7        29.79F FOG
$$

NOTE: "FAIR" INDICATES FEW OR NO CLOUDS BELOW 12,000 FEET WITH NO
SIGNIFICANT WEATHER AND/OR OBSTRUCTIONS TO VISIBILITY. WIND
SPEEDS ARE IN MILES-PER-HOUR.




USA.gov is the U.S. government's official web portal to all federal, state and local government web resources and services.